GALAXY 37 (G-37)

Last updated on Wed Sep 17 2025 00:02:51 GMT+0000 (Coordinated Universal Time)

1 57493U 23112A 25259.55851190 .00000000 00000+0 00000+0 0 9992 2 57493 0.0219 140.5186 0002144 55.1933 234.1020 1.00270677 7799
UTC large
Height (km)
Speed (km/s)
/
Latitude / Longitude
Inclination (degrees)
Orbital Period (minutes)
Azimuth
Elevation
Range (km)
Doppler Factor

Next 0 passes for location: London (51.5072 / 0.1276)

Sorry there are no passes over London.